Date,TemperatureHighF,TemperatureAvgF,TemperatureLowF,DewpointHighF,DewpointAvgF,DewpointLowF,HumidityHigh,HumidityAvg,HumidityLow,PressureMaxIn,PressureMinIn,WindSpeedMaxMPH,WindSpeedAvgMPH,GustSpeedMaxMPH,PrecipitationSumIn
2013-1-23,73,69,62,59,55,52,81,63,50,30.28,30.22,9,5,13,0.00
2013-1-24,74,65,59,56,53,45,85,66,44,30.27,30.19,9,4,13,0.00
2013-1-25,75,66,59,60,55,51,85,69,52,30.27,30.17,9,2,10,0.00
2013-1-26,77,67,60,61,58,53,93,73,48,30.24,30.16,9,2,9,0.00
2013-1-27,78,70,61,63,60,58,91,72,53,30.28,30.19,9,3,10,0.00
2013-1-28,79,75,72,66,63,60,77,68,58,30.31,30.23,9,6,12,0.00
2013-1-29,78,75,73,69,66,64,84,75,71,30.23,30.13,9,4,13,0.00
2013-1-30,78,75,72,68,65,62,86,72,64,30.13,29.97,11,5,13,0.00
2013-1-31,72,65,59,68,55,42,90,70,49,30.17,29.98,11,4,11,0.00
2013-2-1,71,62,54,55,49,40,74,63,53,30.25,30.15,13,6,17,0.00
2013-2-2,72,63,56,55,49,39,87,62,46,30.24,30.11,8,3,10,0.00
2013-2-3,73,63,56,55,50,40,94,65,31,30.15,30.06,10,3,11,0.00
2013-2-4,75,62,50,56,49,43,87,65,34,30.13,30.02,8,2,9,0.00
2013-2-5,77,67,55,64,58,53,95,77,52,30.07,30.00,7,2,13,0.00
2013-2-6,79,70,61,66,62,60,95,77,59,30.09,30.01,8,3,9,0.00
2013-2-7,80,74,70,66,64,61,81,70,55,30.07,29.94,9,4,9,0.00
2013-2-8,82,74,70,70,67,64,92,78,58,30.03,29.90,11,4,12,0.00
2013-2-9,77,71,64,67,63,59,95,78,63,30.17,30.01,11,4,15,0.00
2013-2-10,75,72,70,62,61,58,77,68,63,30.25,30.14,10,6,13,0.00
2013-2-11,77,73,70,65,63,60,76,70,64,30.22,30.10,9,5,11,0.00
2013-2-12,81,74,66,69,66,63,92,77,61,30.11,29.98,11,4,11,0.00
2013-2-13,82,76,69,71,69,65,93,80,65,30.01,29.90,11,5,15,0.00
2013-2-14,79,71,63,71,67,61,95,88,74,30.01,29.87,12,4,12,0.95
2013-2-15,72,67,63,66,64,61,95,92,79,30.01,29.93,8,2,8,0.96
2013-2-16,72,65,55,64,57,46,95,76,44,30.07,29.87,12,5,16,0.39
2013-2-17,58,51,45,47,35,22,73,56,29,30.28,30.06,16,6,23,0.01
2013-2-18,69,59,47,57,46,35,70,61,48,30.29,30.19,10,5,11,0.00
2013-2-19,76,71,63,66,60,54,90,69,60,30.19,30.08,10,5,15,0.00
2013-2-20,78,70,64,67,64,58,95,82,55,30.11,30.01,9,2,12,0.01
2013-2-21,80,73,65,68,65,63,95,78,61,30.09,29.99,9,3,11,0.03
2013-2-22,80,76,73,70,69,65,86,79,68,30.10,30.01,11,5,14,0.00
2013-2-23,82,77,73,72,69,67,88,78,67,30.05,29.92,11,6,15,0.00
2013-2-24,85,77,71,72,70,65,95,80,52,30.00,29.91,7,3,10,0.00
2013-2-25,83,76,69,72,70,66,93,82,66,29.92,29.82,13,4,14,0.00
2013-2-26,85,79,75,72,70,66,86,74,55,29.90,29.81,12,7,16,0.00
2013-2-27,77,70,65,73,66,62,95,85,63,29.96,29.86,7,3,11,0.37
2013-2-28,69,64,60,63,54,48,94,71,48,30.00,29.90,8,4,12,0.37
2013-3-1,65,62,59,58,52,48,82,69,56,29.98,29.90,8,4,9,0.00
2013-3-2,65,58,53,51,43,37,75,59,44,30.02,29.94,10,5,15,0.00
2013-3-3,60,54,51,48,44,40,87,71,49,30.13,29.96,10,4,11,0.00
2013-3-4,65,53,43,46,40,35,81,62,35,30.19,30.10,10,5,15,0.00
2013-3-5,74,62,50,57,53,46,94,72,52,30.16,30.08,9,3,13,0.00
2013-3-6,77,65,53,63,56,39,93,75,42,30.09,29.94,13,5,13,0.00
2013-3-7,68,58,50,56,47,38,85,69,48,30.17,30.05,9,4,12,0.00
2013-3-8,73,63,54,54,51,45,90,69,38,30.17,30.10,8,3,9,0.00
2013-3-9,73,66,57,57,54,51,89,67,51,30.18,30.09,10,4,14,0.00
2013-3-10,75,70,67,61,56,52,72,61,50,30.16,30.06,9,5,17,0.00
2013-3-11,77,72,69,63,60,58,73,66,53,30.11,29.96,11,5,12,0.00
2013-3-12,79,74,70,69,65,61,83,73,64,30.00,29.91,12,6,15,0.00
2013-3-13,74,66,57,65,55,45,92,70,42,30.11,29.97,12,5,14,0.00
2013-3-14,69,61,55,54,48,38,87,64,35,30.19,30.08,15,6,19,0.00
2013-3-15,71,63,53,55,50,45,80,65,47,30.23,30.14,12,5,13,0.00
2013-3-16,74,65,55,57,54,51,95,70,47,30.18,30.09,9,3,11,0.00
2013-3-17,75,70,59,61,58,55,89,68,56,30.14,30.01,9,3,12,0.01
2013-3-18,79,72,67,70,65,61,94,78,64,30.06,29.94,12,4,17,0.01
2013-3-19,79,73,68,70,67,63,94,83,62,29.99,29.80,13,3,15,0.16
2013-3-20,81,72,64,68,65,59,95,79,55,29.95,29.79,10,3,12,0.00
2013-3-21,75,67,59,62,54,47,92,68,38,29.93,29.81,9,4,14,0.00
2013-3-22,76,68,57,69,60,54,95,77,55,29.98,29.88,9,3,11,0.00
2013-3-23,85,78,72,73,71,67,93,80,57,29.97,29.80,12,4,17,0.02
2013-3-24,88,80,73,73,70,67,92,74,51,29.88,29.68,16,7,29,0.02
2013-3-25,78,74,66,73,60,44,91,65,35,29.97,29.73,11,5,12,0.01
2013-3-26,66,61,53,45,40,34,64,47,33,30.18,29.97,12,7,15,0.01
2013-3-27,68,57,46,48,43,37,76,61,38,30.21,30.14,9,5,13,0.00
2013-3-28,71,61,52,51,46,36,80,59,34,30.23,30.15,10,4,10,0.00
2013-3-29,72,65,56,54,50,44,74,60,46,30.26,30.17,12,4,13,0.00
2013-3-30,74,67,57,55,53,49,87,61,44,30.24,30.14,9,3,11,0.00
2013-3-31,79,73,67,66,60,-100,79,68,56,30.17,30.03,10,4,16,0.00
2013-4-1,85,76,72,70,66,61,87,71,45,30.04,29.93,13,5,14,0.00
2013-4-2,82,74,66,67,65,63,95,76,54,30.06,29.97,7,3,9,0.00
2013-4-3,80,76,71,70,67,65,85,74,63,30.05,29.98,11,5,13,0.00
2013-4-4,83,76,69,72,69,67,95,81,67,30.03,29.89,13,5,14,0.75
2013-4-5,73,69,66,71,66,64,95,90,80,29.97,29.83,10,3,10,0.75
2013-4-6,76,68,59,65,61,57,94,77,60,30.06,29.90,13,6,17,0.01
2013-4-7,77,74,71,63,62,60,74,68,59,30.11,30.00,8,5,12,0.02
2013-4-8,80,73,62,64,61,56,94,68,46,30.11,30.02,8,3,9,0.00
2013-4-9,80,76,73,67,66,63,77,70,62,30.13,30.03,10,5,13,0.00
2013-4-10,82,77,74,71,69,65,82,76,68,30.09,29.98,10,6,11,0.00
2013-4-11,82,78,75,73,70,69,86,79,68,30.01,29.89,12,6,15,0.00
2013-4-12,85,79,77,75,73,71,92,82,66,29.93,29.86,13,6,18,0.85
2013-4-13,83,77,73,74,72,67,91,84,71,29.96,29.86,9,2,10,0.85
2013-4-14,85,79,72,74,72,70,95,81,64,29.95,29.89,9,4,13,0.03
2013-4-15,86,78,70,75,72,68,94,84,66,30.05,29.91,11,3,13,1.09
2013-4-16,85,77,71,76,72,69,95,84,67,30.10,30.01,9,4,10,1.09
2013-4-17,82,78,74,71,68,66,83,72,59,30.10,30.01,10,5,11,0.14
2013-4-18,83,79,76,73,70,67,80,73,63,30.05,29.96,11,5,15,0.00
2013-4-19,85,81,78,74,71,69,81,72,58,30.04,29.95,12,6,12,0.00
2013-4-20,87,78,72,75,72,68,94,83,60,30.06,29.95,11,3,11,1.50
2013-4-21,83,77,72,73,71,69,94,83,67,30.08,29.98,9,4,14,1.50
2013-4-22,83,75,70,72,69,54,94,84,56,30.03,29.91,9,2,12,0.01
2013-4-23,81,74,67,68,65,61,95,75,57,30.07,29.93,14,6,16,2.17
2013-4-24,81,77,73,65,63,60,72,62,54,30.12,30.01,8,4,9,0.01
2013-4-25,80,76,72,64,62,60,72,62,52,30.18,30.06,8,4,15,0.00
2013-4-26,80,76,69,65,63,61,82,67,57,30.20,30.09,13,4,13,0.00
2013-4-27,80,77,73,67,63,60,73,64,53,30.19,30.07,9,5,14,0.00
2013-4-28,81,77,73,66,62,-100,73,63,54,30.10,29.98,11,6,12,0.00
2013-4-29,81,78,75,71,67,61,79,70,60,30.02,29.93,11,6,14,0.00
2013-4-30,82,77,72,72,70,66,90,79,60,29.98,29.91,10,3,10,0.14
2013-5-1,83,75,71,73,70,68,95,84,64,29.98,29.91,8,2,11,0.14
2013-5-2,79,72,67,73,69,66,96,91,79,29.93,29.78,14,3,19,0.24
2013-5-3,84,74,68,71,68,66,96,83,56,29.80,29.68,8,4,9,4.54
2013-5-4,87,77,68,70,67,64,95,74,48,29.79,29.67,9,4,13,0.08
2013-5-5,80,74,69,67,62,52,93,69,39,29.91,29.74,9,4,11,0.00
2013-5-6,83,71,61,67,61,55,95,71,44,29.99,29.90,8,2,9,0.20
2013-5-7,84,73,63,66,61,58,91,69,42,30.04,29.95,10,4,11,0.20
2013-5-8,84,74,63,66,61,52,93,66,34,30.11,30.02,6,3,7,0.00
2013-5-9,85,76,66,72,66,61,85,72,57,30.12,30.05,10,3,12,0.00
2013-5-10,87,80,76,74,68,-100,87,70,53,30.09,30.01,10,5,11,0.00
2013-5-11,86,79,74,74,72,67,93,79,65,30.05,29.97,10,4,13,0.00
2013-5-12,87,78,72,74,67,-100,94,79,57,30.05,29.94,10,3,11,0.44
2013-5-13,86,78,72,72,69,64,95,76,51,30.07,29.97,9,3,13,0.44
2013-5-14,80,76,73,67,60,56,76,59,46,30.16,30.05,12,6,14,0.00
2013-5-15,80,76,71,64,60,57,69,58,48,30.17,30.08,11,5,12,0.00
2013-5-16,82,71,70,64,40,-100,71,60,49,30.10,30.03,9,4,11,0.00
2013-5-17,86,77,70,72,64,-100,93,74,52,30.08,30.00,9,3,11,0.04
2013-5-18,84,78,73,75,72,69,95,81,67,30.09,30.02,11,4,11,0.32
2013-5-19,84,80,75,71,69,65,82,70,54,30.08,29.99,8,4,10,0.24
2013-5-20,81,76,70,74,72,67,95,85,75,30.06,29.95,13,4,13,1.94
2013-5-21,82,76,71,74,70,68,95,84,64,30.04,29.93,12,-53,12,2.19
2013-5-22,81,76,72,72,71,69,91,86,75,30.00,29.94,6,1,8,1.20
2013-5-23,87,81,75,72,71,69,90,74,58,30.03,29.95,5,0,6,0.30
2013-5-24,87,79,76,74,72,70,93,81,58,30.03,30.03,0,0,4,0.01
2013-5-25,79,76,76,74,72,65,91,86,65,30.18,30.03,245,19,249,0.23
2013-5-26,82,79,78,65,65,64,65,61,54,30.18,30.17,0,0,9,1.00
2013-5-27,82,82,80,71,67,64,72,62,54,30.17,30.16,8,0,14,0.08
2013-5-28,77,77,77,70,70,70,80,80,80,30.10,30.10,5,5,5,0.00
2013-5-29,80,74,71,72,70,69,94,88,75,30.09,30.01,9,2,9,0.15
2013-5-30,82,78,75,73,71,69,86,78,70,30.04,29.98,13,8,17,0.30
2013-5-31,82,79,75,75,73,70,92,82,74,30.03,29.98,11,6,13,0.30
2013-6-1,84,78,74,76,74,72,94,88,71,30.01,29.93,8,2,11,0.90
2013-6-2,88,79,73,77,71,-100,95,82,59,29.98,29.91,9,2,11,3.50
2013-6-3,86,79,74,76,73,70,94,84,63,30.01,29.90,9,2,11,6.90
2013-6-4,77,76,74,75,74,72,95,94,92,30.01,29.93,3,0,123,7.20
2013-6-5,84,81,76,76,75,74,94,84,76,30.01,29.88,9,4,123,1.20
2013-6-6,86,80,74,78,75,71,95,85,72,29.89,29.76,16,7,43,0.44
2013-6-7,90,78,74,76,73,72,95,86,57,29.97,29.82,12,4,12,0.60
2013-6-8,87,80,75,78,74,-100,95,85,69,30.08,29.94,6,2,10,0.20
2013-6-9,86,82,79,75,74,72,89,76,66,30.09,30.02,11,6,11,0.40
2013-6-10,86,83,80,76,75,73,83,77,68,30.08,29.99,8,5,11,0.00
2013-6-11,87,82,78,77,75,71,93,80,60,30.08,29.99,11,3,11,4.40
2013-6-12,87,81,77,77,75,73,93,84,64,30.06,30.00,7,1,7,4.40
2013-6-13,89,80,75,77,74,70,95,82,53,30.03,29.92,7,2,7,2.40
2013-6-14,93,81,75,75,72,69,93,75,48,29.95,29.87,10,3,11,2.40
2013-6-15,89,82,76,76,73,69,92,76,52,30.04,29.91,8,2,9,0.00
2013-6-16,89,83,76,77,74,71,92,76,57,30.07,30.00,8,3,10,0.20
2013-6-17,89,84,78,76,74,71,87,73,58,30.07,29.99,9,3,12,0.20
2013-6-18,89,84,79,76,74,71,88,72,56,30.05,29.97,10,3,11,0.00
2013-6-19,90,84,79,77,74,70,90,74,53,30.03,29.97,9,3,14,0.00
2013-6-20,90,82,72,75,73,68,93,75,56,30.06,30.00,10,3,12,1.10
2013-6-22,88,85,82,74,72,70,75,66,58,30.09,30.03,8,5,11,0.00
2013-6-23,87,83,80,78,73,70,82,71,59,30.11,30.03,12,5,12,0.30
2013-6-24,87,82,78,74,73,71,88,74,64,30.14,30.06,8,5,11,0.30
2013-6-25,87,83,80,76,74,72,81,75,66,30.11,30.02,10,4,11,3.40
2013-6-26,88,83,79,76,74,72,89,77,61,30.06,29.99,9,3,10,1.90
2013-6-27,86,82,76,76,74,72,89,77,67,30.04,29.94,7,2,9,1.90
2013-6-28,89,80,75,76,73,69,94,81,59,29.97,29.85,9,3,14,2.30
2013-6-29,89,80,75,77,74,69,94,83,58,29.91,29.81,11,2,11,2.50
2013-6-30,88,81,77,76,74,71,88,79,60,29.93,29.83,14,5,16,1.50
2013-7-1,87,81,79,76,75,72,87,80,67,29.99,29.90,11,4,11,0.40
2013-7-2,87,82,76,77,75,71,93,80,69,30.09,29.96,8,4,11,1.10
2013-7-3,87,82,78,77,75,72,89,79,67,30.10,30.02,11,4,11,0.10
2013-7-4,88,84,79,76,74,70,82,72,63,30.13,30.05,11,6,16,1.00
2013-7-5,86,81,76,77,74,72,93,82,70,30.13,30.03,12,4,12,3.90
2013-7-6,86,82,80,76,74,71,86,75,64,30.10,30.01,10,6,12,5.10
2013-7-7,88,83,80,76,74,70,81,73,60,30.08,30.01,9,5,13,1.00
2013-7-8,88,83,80,74,72,71,78,71,59,30.13,30.05,8,4,10,0.00
2013-7-9,86,81,76,74,72,68,88,74,58,30.11,30.03,10,2,11,0.10
2013-7-10,84,77,71,75,69,-100,95,80,70,30.06,29.98,11,3,11,0.10
2013-7-11,89,82,76,76,74,71,92,77,58,30.01,29.93,9,2,9,2.20
2013-7-12,88,80,77,77,73,69,93,81,57,29.95,29.89,9,2,9,0.20
2013-7-13,87,76,73,76,72,71,95,89,63,30.01,29.90,6,2,7,0.20
2013-7-14,87,79,72,75,72,70,95,83,59,30.06,29.96,10,3,13,0.50
2013-7-15,87,79,73,75,72,70,95,83,60,30.06,29.99,7,2,12,1.40
2013-7-16,83,79,73,74,71,69,94,78,65,30.12,30.02,10,4,11,3.70
2013-7-17,81,78,73,74,72,71,95,84,76,30.12,30.02,7,3,9,3.90
2013-7-18,83,75,72,76,72,69,95,92,75,30.09,30.03,11,1,11,9.70
2013-7-19,86,79,74,78,74,72,95,86,69,30.11,30.03,9,3,13,6.80
2013-7-20,85,81,77,78,74,-100,91,81,72,30.08,30.01,10,4,10,0.90
2013-7-21,89,81,76,78,75,73,93,83,68,30.13,30.03,8,2,10,0.90
2013-7-22,88,82,78,76,75,73,88,80,62,30.12,30.06,7,2,8,0.10
2013-7-23,90,83,78,76,74,71,90,75,55,30.09,29.96,7,3,8,0.00
2013-7-24,92,85,78,76,73,67,91,70,47,30.00,29.90,9,4,11,0.00
2013-7-25,93,83,77,75,73,71,89,72,49,30.00,29.90,8,3,11,0.00
2013-7-26,91,82,78,77,74,71,88,79,53,30.00,29.92,10,4,10,0.00
2013-7-27,90,80,76,77,75,73,94,86,60,29.98,29.92,11,2,11,3.50
2013-7-28,85,80,74,77,75,72,93,84,71,30.05,29.93,8,2,12,5.20
2013-7-29,88,81,76,77,75,72,94,84,68,30.12,30.00,9,2,14,4.20
2013-7-30,88,84,74,79,76,71,93,78,65,30.14,30.06,9,3,10,0.70
2013-7-31,88,84,80,76,74,71,85,73,63,30.09,29.99,10,4,10,4.10
2013-8-1,88,84,81,75,73,71,79,71,59,30.03,29.93,8,5,11,0.00
2013-8-2,90,82,76,76,73,70,91,76,53,30.03,29.90,7,2,9,0.80
2013-8-3,86,78,72,78,74,70,95,88,70,30.10,30.00,9,1,9,0.80
2013-8-4,91,82,76,77,75,72,95,80,55,30.09,29.96,10,2,10,6.50
2013-8-5,89,81,77,78,75,72,92,83,62,30.02,29.93,8,2,10,2.80
2013-8-6,90,82,76,77,75,71,94,80,63,29.96,29.88,8,2,10,2.50
2013-8-7,88,83,78,77,75,73,91,77,65,29.96,29.88,9,3,9,0.00
2013-8-8,89,85,82,76,74,71,80,72,58,30.00,29.91,10,5,12,0.10
2013-8-9,88,83,81,76,73,70,80,73,64,30.04,29.93,9,5,11,0.10
2013-8-10,89,85,82,77,75,74,81,72,62,30.10,30.01,9,6,9,0.00
2013-8-11,89,85,82,77,75,73,79,73,65,30.11,30.04,9,5,9,0.00
2013-8-12,88,83,78,76,74,72,85,74,63,30.09,29.99,8,3,12,0.00
2013-8-13,90,83,81,76,71,-100,83,70,51,30.03,29.94,8,4,11,0.00
2013-8-14,86,81,77,75,74,73,91,81,65,30.00,29.93,4,1,4,0.00
2013-9-1,86,83,79,77,76,74,92,81,68,29.97,29.91,6,2,7,0.00
2013-9-2,90,79,75,77,75,73,95,87,58,30.01,29.92,7,1,10,1.10
2013-9-3,89,81,73,77,75,71,95,82,62,30.00,29.91,6,2,6,1.10
2013-9-4,86,83,79,78,76,73,88,80,74,30.04,29.93,5,2,5,0.60
2013-9-5,89,85,82,77,76,74,85,76,66,30.05,29.97,6,3,9,0.10
2013-9-6,90,85,80,78,73,-100,88,74,54,30.02,29.92,10,3,11,0.20
2013-9-7,85,79,75,77,75,70,94,87,69,29.96,29.88,9,2,9,0.20
2013-9-8,87,79,74,77,71,-100,95,82,60,29.93,29.84,7,2,7,2.20
2013-9-9,88,82,75,76,74,72,93,76,59,29.98,29.87,8,3,8,0.50
2013-9-10,89,83,80,75,74,72,83,74,62,30.02,29.94,9,4,10,0.00
2013-9-11,83,80,75,76,74,72,95,82,76,30.03,29.94,9,3,9,0.20
2013-9-12,85,81,77,77,75,73,93,83,73,29.99,29.87,5,2,7,6.40
2013-9-13,89,82,75,78,74,70,95,78,62,29.88,29.79,6,2,7,2.50
2013-9-14,90,84,77,76,74,70,93,74,54,29.96,29.80,7,3,12,2.50
2013-9-15,85,81,78,79,72,-100,88,79,71,30.02,29.91,6,2,8,0.20
2013-9-16,85,82,78,77,76,72,94,82,72,30.01,29.94,8,4,10,0.80
2013-9-17,82,80,77,76,75,73,94,85,77,30.00,29.89,9,4,10,9.00
2013-9-18,82,79,77,76,75,74,93,88,80,29.95,29.89,6,1,7,0.00
2013-9-19,87,80,75,77,74,70,95,81,66,29.98,29.90,9,3,9,1.50
2013-9-20,85,81,75,73,70,67,86,69,55,29.97,29.88,11,5,17,1.50
2013-9-21,87,81,73,73,72,70,91,73,59,29.89,29.76,6,3,9,0.00
2013-9-22,89,82,78,77,72,-100,91,75,52,29.84,29.74,8,3,8,0.00
2013-9-23,88,81,77,77,76,74,93,85,66,29.95,29.84,7,1,7,1.90
2013-9-24,90,82,75,79,75,72,95,82,57,29.94,29.85,9,3,9,1.90
2013-9-25,90,81,75,78,74,71,89,78,57,29.88,29.79,9,3,15,2.01
2013-9-26,87,81,77,78,76,74,93,85,70,29.84,29.77,11,4,14,0.01
2013-9-27,86,82,77,76,73,69,94,75,57,29.89,29.80,11,4,11,0.25
2013-9-28,87,80,74,74,72,70,94,78,61,29.93,29.85,9,4,11,0.09
2013-9-29,86,80,73,73,67,-100,92,68,53,29.94,29.86,8,2,11,0.09
2013-9-30,87,81,73,73,70,69,92,71,57,29.98,29.88,7,2,8,0.00
2013-10-1,82,82,81,72,72,70,73,72,70,30.01,29.97,5,4,6,0.00
2013-10-2,87,83,80,73,72,70,76,70,61,30.02,29.94,9,5,12,0.00
2013-10-3,86,82,80,74,72,70,81,73,60,30.03,29.93,9,4,9,0.00
2013-10-4,86,82,76,73,71,69,85,70,59,30.03,29.96,7,3,9,0.00
2013-10-5,87,80,72,74,71,69,94,73,59,30.01,29.92,7,2,7,0.00
2013-10-6,88,82,75,75,72,69,89,72,55,29.95,29.85,7,2,9,0.00
2013-10-7,90,80,75,75,72,70,93,79,52,29.88,29.80,18,3,18,0.06
2013-10-8,90,82,77,78,74,70,95,78,54,29.91,29.82,7,3,9,0.05
2013-10-9,83,78,73,75,72,70,92,83,70,29.96,29.88,13,5,13,0.00
2013-10-10,85,79,72,73,71,68,95,77,60,29.98,29.92,12,6,17,0.00
2013-10-11,85,78,70,71,68,66,95,73,55,29.99,29.91,10,3,13,0.00
2013-10-12,85,78,69,72,68,66,95,73,54,30.00,29.92,7,2,8,0.00
2013-10-13,85,76,72,72,64,-100,93,70,46,30.02,29.94,10,3,12,0.00
2013-10-14,85,78,70,70,68,66,93,74,54,29.99,29.88,7,3,9,0.00
2013-10-15,84,78,71,72,70,67,94,77,57,29.93,29.85,10,3,10,0.00
2013-10-16,84,78,72,72,69,67,92,75,57,29.92,29.86,8,2,8,0.00
2013-10-17,86,79,71,74,70,68,95,77,57,29.94,29.87,6,2,10,0.00
2013-10-18,86,80,72,74,72,70,94,77,59,29.96,29.88,7,2,8,0.01
2013-10-19,88,82,75,74,72,70,90,73,55,29.94,29.86,7,3,7,0.01
2013-10-20,87,80,77,76,72,-100,91,78,67,29.94,29.85,8,2,10,6.02
2013-10-21,88,82,77,76,75,73,94,78,62,29.98,29.89,7,2,8,0.00
2013-10-22,89,82,76,77,72,-100,92,79,57,29.94,29.81,8,3,9,0.00
2013-10-23,88,81,77,76,73,69,92,78,57,29.93,29.80,10,4,10,0.00
2013-10-24,80,77,73,69,65,61,80,68,57,30.06,29.91,12,6,16,0.00
2013-10-25,81,78,71,67,63,62,81,62,52,30.11,30.05,13,8,19,0.00
2013-10-26,81,76,69,66,64,62,85,67,52,30.11,30.03,9,3,13,0.00
2013-10-27,82,74,67,65,61,-100,83,66,52,30.06,29.94,8,4,11,0.00
2013-10-28,83,76,68,68,63,-100,90,66,50,30.11,30.02,9,3,11,0.00
2013-10-29,84,78,68,69,67,65,92,69,57,30.14,30.06,10,4,12,0.00
2013-10-30,83,80,77,69,67,65,72,65,58,30.15,30.06,9,6,15,0.00
2013-10-31,84,74,76,73,58,-100,87,68,64,30.09,29.98,10,5,10,0.00
2013-11-1,86,81,78,74,72,71,81,74,66,29.99,29.87,8,5,9,0.03
2013-11-3,80,74,69,65,62,-100,85,68,54,29.99,29.86,14,7,19,0.00
2013-11-4,80,77,74,68,64,57,74,64,48,30.04,29.98,14,8,16,0.00
2013-11-5,82,79,77,72,68,65,85,71,61,30.06,29.99,10,7,15,0.01
2013-11-6,83,79,73,70,68,66,86,71,57,30.03,29.97,9,5,13,0.01
2013-11-7,84,76,70,72,70,68,95,82,61,29.98,29.90,7,3,12,0.00
2013-11-8,82,76,71,74,70,67,95,81,62,30.01,29.91,11,6,17,0.28
2013-11-9,78,75,73,73,69,-100,95,83,77,30.08,29.98,12,7,15,0.28
2013-11-10,82,79,76,72,70,68,86,75,70,30.09,30.02,9,6,11,0.17
2013-11-11,82,78,71,71,68,66,91,73,65,30.08,30.02,7,4,9,0.00
2013-11-12,82,76,70,71,68,63,94,77,57,30.03,29.94,7,3,9,0.00
2013-11-13,75,72,69,68,64,57,88,77,64,30.17,29.96,14,9,21,0.02
2013-11-14,76,73,70,62,58,55,68,60,54,30.20,30.11,11,6,11,0.01
2013-11-15,81,77,73,69,67,62,75,71,63,30.11,30.00,10,6,11,0.00
2013-11-16,79,78,73,71,70,67,91,75,68,30.06,29.99,9,5,9,0.05
2013-11-17,82,79,75,72,71,69,86,75,67,30.04,29.98,9,5,10,0.05
2013-11-18,82,76,73,74,71,70,95,86,68,30.00,29.90,5,0,5,0.01
2013-11-19,83,75,73,74,71,70,95,89,68,29.91,29.83,10,2,11,0.52
2013-11-20,81,78,72,74,63,-100,95,80,75,30.03,29.89,5,-54,6,0.04
2013-11-21,80,76,72,74,72,70,95,87,79,30.11,30.01,6,4,10,1.95
2013-11-22,81,78,76,72,70,69,81,77,71,30.12,30.04,11,6,14,1.95
2013-11-23,80,75,73,71,64,-100,88,76,72,30.04,29.96,6,2,6,0.00
2013-11-24,79,72,68,71,68,65,95,85,64,30.10,29.95,15,6,16,0.40
2013-11-25,75,73,72,69,65,60,85,76,67,30.15,30.03,13,8,14,0.40
2013-11-26,78,76,72,74,72,69,94,86,82,30.02,29.83,9,7,15,0.17
2013-11-27,78,73,72,75,71,70,96,95,92,29.86,29.76,6,4,6,0.19
2013-11-28,72,71,65,60,57,55,73,62,56,30.20,30.12,11,6,14,0.00
2013-11-29,76,71,61,62,60,56,92,69,58,30.22,30.15,10,6,12,0.00
2013-11-30,75,68,62,69,63,60,95,84,65,30.17,30.08,11,5,11,0.60
2013-12-1,77,70,68,70,68,67,96,93,74,29.97,29.92,6,3,7,1.66
2013-12-2,73,68,65,68,66,63,97,92,71,29.91,29.80,5,2,5,1.66
2013-12-3,70,70,70,66,66,66,88,88,88,29.96,29.96,0,0,0,0.00
2013-12-4,80,70,65,66,65,64,96,87,62,30.06,29.95,6,1,6,0.00
2013-12-5,81,75,66,71,69,65,96,81,68,30.13,30.04,9,4,9,0.00
2013-12-6,80,77,73,71,69,67,82,79,72,30.14,30.06,7,4,11,0.00
2013-12-7,82,75,68,72,67,-100,95,79,64,30.18,30.11,7,3,8,0.00
2013-12-8,82,78,72,71,69,67,92,75,64,30.17,30.10,12,6,12,0.00
2013-12-9,81,78,76,71,68,65,80,72,59,30.16,30.08,9,5,11,6.97
2013-12-10,77,76,74,71,70,70,91,83,79,30.12,30.07,5,3,7,0.00
2013-12-11,72,71,70,70,69,68,96,95,92,30.14,30.09,5,2,5,0.00
2013-12-12,72,71,70,70,69,68,96,95,92,30.16,30.10,5,1,5,0.00
2013-12-13,74,74,74,66,66,66,75,75,75,30.08,30.08,6,6,6,0.00
2013-12-14,81,73,75,72,63,-100,84,77,72,30.06,29.97,8,5,9,0.01
2013-12-15,77,75,73,73,72,69,94,90,86,30.02,29.91,5,4,5,0.00
2013-12-16,71,68,63,67,62,60,92,83,79,30.11,30.01,6,5,7,0.00
2013-12-17,74,64,59,61,59,58,96,86,63,30.11,30.07,6,3,10,0.00
2013-12-18,62,62,61,60,59,57,94,93,85,30.18,30.09,7,2,7,0.00
2013-12-19,74,62,58,61,58,57,96,89,65,30.18,30.12,6,1,6,0.00
2013-12-22,81,79,77,74,72,71,88,80,72,30.13,30.07,9,5,12,0.03
2013-12-23,82,78,72,73,72,69,91,81,72,30.14,30.08,9,5,15,0.03
2013-12-24,82,72,68,73,67,62,96,87,66,30.14,30.05,12,4,12,0.01
2013-12-25,77,73,71,68,66,64,91,78,70,30.14,30.07,11,7,19,0.07
2013-12-26,78,75,72,70,69,67,88,82,75,30.13,30.03,9,4,11,0.02
2013-12-27,81,77,74,71,69,68,85,78,71,30.16,30.06,9,5,12,0.02
2013-12-28,79,75,75,73,68,-100,89,81,76,30.14,30.00,9,6,11,0.05
2013-12-29,81,78,75,74,73,72,95,85,78,30.00,29.90,12,6,12,0.05
2013-12-30,79,74,69,73,70,65,96,88,77,30.11,29.95,7,3,10,0.00
2013-12-31,78,72,68,67,65,63,89,78,63,30.19,30.07,16,6,16,0.00
2014-1-1,80,76,73,73,70,65,89,81,72,30.16,30.01,9,5,10,0.00